Weather reports worldwide

Advertisment
Eskdalemuir, United Kingdom (3162): temperature & dewpoint: 17.05.2018 02:00:00 - 23.05.2018 02:00:00 (BST)Eskdalemuir, United Kingdom (3162): temperature -20cm & temperature -100cm: 17.05.2018 02:00:00 - 23.05.2018 02:00:00 (BST)Eskdalemuir, United Kingdom (3162): wind speed & gusts: 17.05.2018 02:00:00 - 23.05.2018 02:00:00 (BST)Eskdalemuir, United Kingdom (3162): wind direction: 17.05.2018 02:00:00 - 23.05.2018 02:00:00 (BST)Eskdalemuir, United Kingdom (3162): reduced air pressure: 17.05.2018 02:00:00 - 23.05.2018 02:00:00 (BST)Eskdalemuir, United Kingdom (3162): visibility: 17.05.2018 02:00:00 - 23.05.2018 02:00:00 (BST)Eskdalemuir, United Kingdom (3162): sunshine duration: 17.05.2018 02:00:00 - 23.05.2018 02:00:00 (BST)Eskdalemuir, United Kingdom (3162): precipitation: 17.05.2018 02:00:00 - 23.05.2018 02:00:00 (BST)
Date & Time tt [°C] td [°C] tt -20cm [°C] tt -100cm [°C] ff [km/h] ff [kn] fx [km/h] fx [kn] dd ppp [hPa] vv [km] sd [min] rr [mm]
23.05.2018 02:00:00 6,9 6,1 - - 18 10 - - NNE 1027,2 16 0 0,0
23.05.2018 01:00:00 7,1 6,1 - - 21 11 - - N 1027,2 25 - 0,0
23.05.2018 00:00:00 7,1 6,1 - - 16 9 - - N 1027,2 17 0 0,0
22.05.2018 23:00:00 7,3 6,3 - - 21 11 - - NNE 1026,9 18 0 0,0
22.05.2018 22:00:00 7,8 6,5 - - 15 8 - - NNE 1026,6 28 0 0,0
22.05.2018 21:00:00 7,9 6,3 - - 24 13 - - NNE 1025,9 30 0 0,0
22.05.2018 20:00:00 8,5 6,4 - - 24 13 - - NNE 1025,5 45 0 0,0
22.05.2018 19:00:00 9,3 6,6 - - 22 12 - - NNE 1025,1 40 0 0,0
22.05.2018 18:00:00 10,1 7,0 - - 21 11 - - NNE 1025,0 40 0 0,0
22.05.2018 17:00:00 10,8 7,3 - - 21 11 - - NNE 1024,8 40 0 0,0
22.05.2018 16:00:00 10,9 - - - 24 13 - - NNE 1024,5 - 0 0,0
22.05.2018 15:00:00 - - - - 24 13 - - N - 45 0 0,0
22.05.2018 14:00:00 - - - - - - - - - - - - -
22.05.2018 13:00:00 9,9 6,6 - - 22 12 - - NNE 1024,6 30 0 0,0
22.05.2018 12:00:00 9,8 6,4 - - 28 15 - - NNE 1024,5 30 0 0,0
22.05.2018 11:00:00 8,5 6,0 - - 22 12 - - NNE 1024,6 20 0 0,0
22.05.2018 10:00:00 8,4 6,4 12,0 9,7 22 12 - - NNE 1024,3 22 0 0,0
22.05.2018 09:00:00 7,6 6,0 - - 18 10 - - NNE 1024,2 15 0 0,0
22.05.2018 08:00:00 7,6 6,1 - - 24 13 - - NNE 1024,1 18 0 0,0
22.05.2018 07:00:00 7,1 5,7 - - 18 10 - - NNE 1023,6 22 0 0,0
22.05.2018 06:00:00 6,8 5,7 - - 29 16 - - NNE 1023,4 16 0 0,0
22.05.2018 05:00:00 6,9 5,9 - - 26 14 - - NNE 1022,8 10 0 0,0
22.05.2018 04:00:00 7,1 6,2 - - 22 12 - - NNE 1022,7 6 0 0,0
22.05.2018 03:00:00 7,5 6,5 - - 22 12 - - NNE 1022,3 15 0 0,0
22.05.2018 02:00:00 8,0 7,1 - - 28 15 - - NNE 1022,1 7 0 0,0
22.05.2018 01:00:00 9,6 7,8 - - 22 12 - - NNE 1021,5 11 - 0,0
22.05.2018 00:00:00 11,5 8,2 - - 8 4 - - NNE 1020,5 50 0 0,0
21.05.2018 23:00:00 11,9 9,1 - - 5 3 - - NNE 1019,9 50 0 0,0
21.05.2018 22:00:00 13,4 9,2 - - 9 5 - - NNE 1019,5 45 0 0,0
21.05.2018 21:00:00 14,5 9,3 - - 5 3 - - NNW 1018,9 45 0 0,0
21.05.2018 20:00:00 16,7 9,5 - - 11 6 - - W 1018,0 45 18 0,0
21.05.2018 19:00:00 19,3 7,8 - - 5 3 - - W 1017,7 18 60 0,0
21.05.2018 18:00:00 19,0 7,3 - - 13 7 - - W 1017,7 40 54 0,0
21.05.2018 17:00:00 19,7 7,3 - - 15 8 - - W 1017,5 35 60 0,0
21.05.2018 16:00:00 19,2 6,8 - - 15 8 - - WSW 1017,8 40 54 0,0
21.05.2018 15:00:00 19,6 7,1 - - 13 7 - - WSW 1017,9 35 60 0,0
21.05.2018 14:00:00 19,1 6,1 - - 11 6 - - SSW 1017,9 35 54 0,0
21.05.2018 13:00:00 18,6 6,4 - - 11 6 - - SSW 1018,0 35 6 0,0
21.05.2018 12:00:00 18,0 5,6 - - 13 7 - - S 1018,1 35 12 0,0
21.05.2018 11:00:00 17,5 4,6 - - 13 7 - - SSW 1018,2 35 48 0,0
21.05.2018 10:00:00 16,2 3,5 11,7 9,7 8 4 - - SE 1018,5 40 60 0,0
21.05.2018 09:00:00 13,3 2,8 - - 5 3 - - SSE 1019,0 40 60 0,0
21.05.2018 08:00:00 9,1 5,5 - - 0 0 - - N 1019,4 40 60 0,0
21.05.2018 07:00:00 4,9 3,1 - - 0 0 - - N 1019,8 45 60 0,0
21.05.2018 06:00:00 2,9 1,7 - - 0 0 - - N 1020,0 45 0 0,0
21.05.2018 05:00:00 2,8 1,9 - - 4 2 - - NNW 1019,6 40 0 0,0
21.05.2018 04:00:00 4,3 3,1 - - 0 0 - - N 1019,7 45 0 0,0
21.05.2018 03:00:00 5,4 3,6 - - 4 2 - - NW 1019,6 50 0 0,0
21.05.2018 02:00:00 6,4 3,9 - - 4 2 - - NNW 1020,1 45 0 0,0
21.05.2018 01:00:00 7,0 4,4 - - 5 3 - - NW 1020,3 40 - 0,0
21.05.2018 00:00:00 7,6 4,5 - - 2 1 - - N 1020,3 50 0 0,0
20.05.2018 23:00:00 8,8 4,6 - - 4 2 - - E 1020,2 45 0 0,0
20.05.2018 22:00:00 9,9 4,5 - - 8 4 - - SSW 1020,0 45 0 0,0
20.05.2018 21:00:00 11,5 3,8 - - 11 6 - - S 1019,6 50 0 0,0
20.05.2018 20:00:00 12,9 3,0 - - 13 7 - - S 1019,4 50 0 0,0
20.05.2018 19:00:00 13,7 2,2 - - 18 10 - - SSW 1019,2 50 0 0,0
20.05.2018 18:00:00 14,5 3,4 - - 26 14 - - SSW 1019,3 35 0 0,0
20.05.2018 17:00:00 14,9 2,6 - - 29 16 46 25 SSW 1019,4 35 0 0,0
20.05.2018 16:00:00 13,9 6,0 - - 28 15 - - SSW 1019,9 19 0 0,0
20.05.2018 15:00:00 13,7 6,4 - - 26 14 - - SSW 1020,3 35 0 0,0
20.05.2018 14:00:00 14,1 6,9 - - 34 18 48 26 SSW 1020,2 26 0 0,0
20.05.2018 13:00:00 13,7 6,3 - - 31 17 50 27 SSW 1020,3 22 0 0,0
20.05.2018 12:00:00 13,8 6,5 - - 34 18 50 27 SSW 1020,3 26 0 0,0
20.05.2018 11:00:00 13,7 6,5 - - 29 16 48 26 SSW 1020,3 19 0 0,0
20.05.2018 10:00:00 13,6 5,8 12,0 9,7 29 16 52 28 SSW 1020,3 30 0 0,0
20.05.2018 09:00:00 12,7 6,0 - - 26 14 - - SSW 1020,3 23 0 0,0
20.05.2018 08:00:00 11,9 6,0 - - 21 11 - - SSW 1020,3 26 0 0,0
20.05.2018 07:00:00 10,6 5,4 - - 13 7 - - S 1020,2 21 0 0,0
20.05.2018 06:00:00 9,5 5,0 - - 11 6 - - S 1020,3 30 0 0,0
20.05.2018 05:00:00 9,3 4,5 - - 9 5 - - SSW 1020,4 28 0 0,0
20.05.2018 04:00:00 9,1 4,6 - - 9 5 - - S 1020,5 35 0 0,0
20.05.2018 03:00:00 8,4 4,9 - - 4 2 - - SSE 1020,8 35 0 0,0
20.05.2018 02:00:00 9,0 4,5 - - 11 6 - - S 1021,0 25 0 0,0
20.05.2018 01:00:00 9,1 4,6 - - 8 4 - - SSW 1021,1 30 - 0,0
20.05.2018 00:00:00 7,9 4,5 - - 5 3 - - SSE 1021,1 30 0 0,0
19.05.2018 23:00:00 8,5 4,9 - - 5 3 - - S 1021,4 29 0 0,0
19.05.2018 22:00:00 9,6 5,0 - - 8 4 - - S 1021,5 30 0 0,0
19.05.2018 21:00:00 11,1 4,3 - - 9 5 - - S 1021,2 35 0 0,0
19.05.2018 20:00:00 12,2 4,3 - - 16 9 - - SSW 1021,2 29 6 0,0
19.05.2018 19:00:00 13,7 3,7 - - 21 11 - - SSW 1021,3 40 24 0,0
19.05.2018 18:00:00 14,6 2,0 - - 24 13 - - SSW 1021,2 30 36 0,0
19.05.2018 17:00:00 15,8 1,4 - - 22 12 - - SSW 1021,2 30 60 0,0
19.05.2018 16:00:00 16,1 2,6 - - 28 15 - - SSW 1021,4 40 60 0,0
19.05.2018 15:00:00 17,6 6,5 - - 24 13 - - S 1021,4 50 60 0,0
19.05.2018 14:00:00 17,8 6,0 - - 24 13 - - SSW 1021,7 45 60 0,0
19.05.2018 13:00:00 16,2 4,6 - - 24 13 - - S 1022,2 13 60 0,0
19.05.2018 12:00:00 16,1 5,7 - - 21 11 - - S 1022,9 20 60 0,0
19.05.2018 11:00:00 16,0 5,1 - - 21 11 - - SSW 1023,3 40 60 0,0
19.05.2018 10:00:00 14,6 5,0 11,9 9,4 18 10 - - SSW 1023,6 25 60 0,0
19.05.2018 09:00:00 11,8 6,4 - - 4 2 - - SSE 1024,0 35 60 0,0
19.05.2018 08:00:00 7,5 6,0 - - 0 0 - - N 1024,7 40 60 0,0
19.05.2018 07:00:00 2,9 2,5 - - 0 0 - - N 1025,1 17 60 0,0
19.05.2018 06:00:00 1,2 0,9 - - 0 0 - - N 1025,3 7 6 0,0
19.05.2018 05:00:00 1,6 1,4 - - 2 1 - - NNW 1025,0 9 0 0,0
19.05.2018 04:00:00 2,2 1,9 - - 2 1 - - NNW 1025,1 4,6 0 0,0
19.05.2018 03:00:00 2,9 2,5 - - 0 0 - - N 1025,3 8 0 0,0
19.05.2018 02:00:00 3,8 3,3 - - 2 1 - - NW 1025,2 16 0 0,0
19.05.2018 01:00:00 4,3 3,6 - - 0 0 - - N 1025,3 16 - 0,0
19.05.2018 00:00:00 5,8 4,6 - - 5 3 - - NNW 1025,2 28 0 0,0
18.05.2018 23:00:00 7,4 5,8 - - 0 0 - - N 1025,3 28 0 0,0
18.05.2018 22:00:00 9,3 6,4 - - 4 2 - - N 1025,1 40 0 0,0
18.05.2018 21:00:00 12,0 7,0 - - 4 2 - - SW 1024,6 40 18 0,0
18.05.2018 20:00:00 13,6 6,9 - - 15 8 - - SSW 1024,1 28 60 0,0
18.05.2018 19:00:00 14,8 6,8 - - 15 8 - - SSW 1023,8 20 60 0,0
18.05.2018 18:00:00 15,3 5,5 - - 15 8 - - SSW 1023,8 45 54 0,0
18.05.2018 17:00:00 15,7 5,9 - - 16 9 - - SSW 1023,8 30 48 0,0
18.05.2018 16:00:00 15,4 4,7 - - 11 6 - - SSW 1024,0 40 30 0,0
18.05.2018 15:00:00 15,5 3,8 - - 13 7 - - W 1024,2 35 24 0,0
18.05.2018 14:00:00 16,8 2,6 - - 11 6 - - WSW 1024,1 26 54 0,0
18.05.2018 13:00:00 15,5 -1,6 - - 16 9 - - WSW 1024,7 35 36 0,0
18.05.2018 12:00:00 15,0 1,9 - - 15 8 - - SW 1024,8 35 60 0,0
18.05.2018 11:00:00 14,1 4,9 - - 15 8 - - SSW 1025,3 28 54 0,0
18.05.2018 10:00:00 12,7 5,1 11,7 9,2 13 7 - - SW 1025,7 26 12 0,0
18.05.2018 09:00:00 10,3 5,3 - - 8 4 - - SE 1026,2 35 42 0,0
18.05.2018 08:00:00 6,3 3,7 - - 0 0 - - N 1026,9 35 60 0,0
18.05.2018 07:00:00 1,7 1,1 - - 0 0 - - N 1027,2 35 42 0,0
18.05.2018 06:00:00 0,3 -0,1 - - 0 0 - - N 1027,3 23 6 0,0
18.05.2018 05:00:00 0,6 0,2 - - 0 0 - - N 1027,5 22 0 0,0
18.05.2018 04:00:00 0,8 0,3 - - 0 0 - - N 1027,6 30 0 0,0
18.05.2018 03:00:00 1,5 1,0 - - 0 0 - - N 1027,8 30 0 0,0
18.05.2018 02:00:00 2,3 1,3 - - 4 2 - - N 1028,2 40 0 0,0
18.05.2018 01:00:00 3,6 2,2 - - 0 0 - - N 1028,3 40 - 0,0
18.05.2018 00:00:00 4,8 2,5 - - 4 2 - - NNW 1028,7 45 0 0,0
17.05.2018 23:00:00 6,9 2,3 - - 9 5 - - N 1028,4 50 0 0,0
17.05.2018 22:00:00 8,0 3,6 - - 8 4 - - NNW 1028,6 45 0 0,0
17.05.2018 21:00:00 10,0 5,2 - - 9 5 - - ENE 1028,0 50 0 0,0
17.05.2018 20:00:00 13,4 4,8 - - 11 6 - - ENE 1027,1 50 48 0,0
17.05.2018 19:00:00 14,3 3,9 - - 11 6 - - E 1027,1 35 30 0,0
17.05.2018 18:00:00 15,2 4,2 - - 8 4 - - SW 1027,1 40 30 0,0
17.05.2018 17:00:00 14,5 3,9 - - 8 4 - - E 1027,6 40 36 0,0
17.05.2018 16:00:00 14,4 3,7 - - 5 3 - - ESE 1028,0 50 30 0,0
17.05.2018 15:00:00 14,8 4,5 - - 9 5 - - S 1028,4 50 18 0,0
17.05.2018 14:00:00 14,0 3,2 - - 5 3 - - E 1028,9 50 24 0,0
17.05.2018 13:00:00 12,7 3,0 - - 4 2 - - SSW 1029,5 35 6 0,0
17.05.2018 12:00:00 11,8 2,9 - - 2 1 - - N 1029,9 45 24 0,0
17.05.2018 11:00:00 11,1 2,4 - - 5 3 - - E 1030,6 40 48 0,0
17.05.2018 10:00:00 10,8 2,2 11,7 9,2 4 2 - - SE 1030,8 40 60 0,0
17.05.2018 09:00:00 9,2 1,8 - - 4 2 - - N 1030,9 35 60 0,0
17.05.2018 08:00:00 5,7 2,8 - - 0 0 - - N 1031,6 35 60 0,0
17.05.2018 07:00:00 2,2 1,2 - - 0 0 - - N 1031,9 45 12 0,0
17.05.2018 06:00:00 0,6 -0,2 - - 2 1 - - NNW 1032,1 45 0 0,0
17.05.2018 05:00:00 0,7 -0,2 - - 4 2 - - NW 1032,4 45 0 0,0
17.05.2018 04:00:00 0,6 -0,4 - - 5 3 - - NNW 1032,6 40 0 0,0
17.05.2018 03:00:00 1,3 0,2 - - 2 1 - - N 1032,7 40 0 0,0
17.05.2018 02:00:00 1,6 0,1 - - 2 1 - - NW 1033,1 50 0 0,0

tt = temperature
td = dewpoint
tt -20cm = temperature -20cm
tt -100cm = temperature -100cm
ff = wind speed
fx = gusts
dd = wind direction
ppp = reduced air pressure
vv = visibility
sd = sunshine duration
rr = precipitation

Next stations